This is the latest recevied weather packets stored in our database for station/object IZ5MMH-1. If no packets are shown the sender has not sent any weather packets the latest 10 day(s).
| Time | Temp. | Humidity | Pressure | Rain* | Wind** | Luminosity | Snow |
|---|---|---|---|---|---|---|---|
| 1788113706 | 25.56° C | 50% | 1015.1 hPa | - | - | - | - |
| 1788113106 | 26.11° C | 52% | 1015 hPa | - | - | - | - |
| 1788112505 | 26.67° C | 48% | 1014.9 hPa | - | - | - | - |
| 1788111906 | 27.22° C | 47% | 1014.8 hPa | - | - | - | - |
| 1788111307 | 27.22° C | 46% | 1014.7 hPa | - | - | - | - |
| 1788110705 | 27.78° C | 46% | 1014.7 hPa | - | - | - | - |
| 1788110105 | 28.33° C | 48% | 1014.6 hPa | - | - | - | - |
| 1788109506 | 28.33° C | 45% | 1014.6 hPa | - | - | - | - |
| 1788108905 | 28.89° C | 43% | 1014.5 hPa | - | - | - | - |
| 1788108305 | 30° C | 41% | 1014.4 hPa | - | - | - | - |
| 1788107705 | 30.56° C | 41% | 1014.3 hPa | - | - | - | - |
| 1788107106 | 30.56° C | 39% | 1014.3 hPa | - | - | - | - |
| 1788106505 | 31.11° C | 37% | 1014.2 hPa | - | - | - | - |
| 1788105905 | 31.67° C | 35% | 1014.2 hPa | - | - | - | - |
| 1788105306 | 31.67° C | 36% | 1014.2 hPa | - | - | - | - |
| 1788104705 | 31.67° C | 35% | 1014.1 hPa | - | - | - | - |
| 1788104105 | 31.67° C | 34% | 1014.2 hPa | - | - | - | - |
| 1788103504 | 32.22° C | 35% | 1014.2 hPa | - | - | - | - |
| 1788102905 | 32.22° C | 33% | 1014.2 hPa | - | - | - | - |
| 1788102305 | 32.22° C | 32% | 1014.1 hPa | - | - | - | - |
| 1788101705 | 32.78° C | 31% | 1014.2 hPa | - | - | - | - |
| 1788101106 | 32.78° C | 33% | 1014.2 hPa | - | - | - | - |
| 1788100504 | 32.78° C | 31% | 1014.3 hPa | - | - | - | - |
| 1788099904 | 32.78° C | 30% | 1014.4 hPa | - | - | - | - |
| 1788099304 | 32.78° C | 30% | 1014.5 hPa | - | - | - | - |
* Rain since midnight (hover to see other rain measurements)
** Current wind speed in m/s (hover to see current wind gust speed)